Weather in Nha Trang

Vietnam     12°14′53″N   109°11′17″E
temp.,
°C
wind,
m/s
gust,
m/s
humid.,
%
clouds,
%
prec.,
mm/h
press.,
hPa
HPBL,
m
12 april, mon
mon1201:00+24nw33859 1.8 1013197
04:00+24nw338491 0.1 1013141
07:00+25nw2279100 0.1 1014125
10:00+26nw227320 0.0 1015189
13:00+28ene657043 0.0 1012785
16:00+28ene657412 0.0 1011757
19:00+26ne34845 0.3 1013358
22:00+26nne338533 0.4 1014319
13 april, tue
tue1301:00+25nw238931 0.6 1012191
04:00+24wnw229095 0.2 1012143
07:00+25wnw228540 0.2 1013196
10:00+28e327171 0.0 1013672
13:00+28e5471100 0.0 1011576
16:00+28e4473100 0.0 1009705
19:00+26e127998 0.0 1011384
22:00+26ne0180100 0.0 1013327
14 april, wed
wed1401:00+25nw1183100 0.0 1011163
04:00+24wnw1186100 0.0 1011128
07:00+25wnw1182100 0.0 1012165
10:00+28ene2266100 0.0 1013581
13:00+28e5366100 0.0 1010618
16:00+27e4470100 0.0 1009646
19:00+26e1275100 0.0 1010386
22:00+25sse0178100 0.0 1011448
15 april, thu
thu1501:00+23nw2286100 0.0 1011149
04:00+23wnw2290100 0.0 1011114
07:00+24wnw2283100 0.0 1012167
10:00+28ene3365100 0.0 1012668
13:00+28e5467100 0.0 1010583
16:00+27e446753 0.0 1009797
19:00+26se22736 0.0 1011398
22:00+25nw11765 0.0 1012223
16 april, fri
fri1601:00+23wnw22855 0.0 1011107
04:00+23wnw22875 0.0 1011107
07:00+24nw228045 0.0 1013195
10:00+27ene436756 0.0 1013709
13:00+28e546589 0.0 1011674
16:00+27e446699 0.0 1009824
19:00+25e2273100 0.0 1011452
22:00+25nnw11768 0.0 1013450